Tracking 31027 objects as of 19-Jul-2025
HD Live streaming from Space Station
objects crossing your sky now

SL-16 R/B DEB

Track SL-16 R/B DEB now!
10-day predictions


NORAD ID: 39719
Int'l Code: 1992-093KK
Perigee: 843.9 km
Apogee: 984.5 km
Inclination: 71.3 °
Period: 103.1 minutes
Semi major axis: 7285 km
RCS: Unknown
Launch date: December 25, 1992
Source: Commonwealth of Independent States (former USSR) (CIS)
Launch site: TYURATAM MISSILE AND SPACE COMPLEX (TTMTR)

Note: This is SATELLITE DEBRIS
Your satellite tracking list
STARLINK-6351
Track 1 satellite(s)




NASA's NSSDC Master Catalog

Two Line Element Set (TLE):
1 39719U 92093KK  25197.26755860  .00000028  00000-0  49899-4 0  9998
2 39719  71.2965 197.2815 0096484  32.4176 345.0320 13.96169877572950
Source of the keplerian elements: AFSPC